Radioactive Concentration measured by Seawater Radiation Monitor near Fukushima Daiichi Nuclear Power Station
Date,Time,Cs137(Bq/L),Cs134(Bq/L),Total β(Bq/L)
2018/12/11,00:00,0.56,ND,ND
2018/12/11,00:10,0.48,ND,ND
2018/12/11,00:20,0.59,ND,ND
2018/12/11,00:30,0.59,ND,ND
2018/12/11,00:40,0.59,ND,ND
2018/12/11,00:50,0.57,ND,ND
2018/12/11,01:00,0.48,ND,ND
2018/12/11,01:10,0.49,ND,ND
2018/12/11,01:20,0.47,ND,ND
2018/12/11,01:30,0.45,ND,ND
2018/12/11,01:40,0.44,ND,ND
2018/12/11,01:50,0.45,ND,ND
2018/12/11,02:00,0.43,ND,ND
2018/12/11,02:10,0.42,ND,ND
2018/12/11,02:20,0.39,ND,ND
2018/12/11,02:30,0.47,ND,ND
2018/12/11,02:40,0.38,ND,ND
2018/12/11,02:50,0.36,ND,ND
2018/12/11,03:00,0.36,ND,ND
2018/12/11,03:10,0.34,ND,ND
2018/12/11,03:20,0.35,ND,ND
2018/12/11,03:30,0.34,ND,ND
2018/12/11,03:40,0.33,ND,ND
2018/12/11,03:50,0.32,ND,ND
2018/12/11,04:00,0.30,ND,ND
2018/12/11,04:10,0.31,ND,ND
2018/12/11,04:20,0.29,ND,ND
2018/12/11,04:30,0.29,ND,ND
2018/12/11,04:40,0.30,ND,ND
2018/12/11,04:50,0.37,ND,ND
2018/12/11,05:00,0.38,ND,ND
2018/12/11,05:10,0.36,ND,ND
2018/12/11,05:20,0.27,ND,ND
2018/12/11,05:30,0.25,ND,ND
2018/12/11,05:40,0.25,ND,ND
2018/12/11,05:50,0.23,ND,ND
2018/12/11,06:00,0.23,ND,ND
2018/12/11,06:10,0.24,ND,ND
2018/12/11,06:20,0.23,ND,ND
2018/12/11,06:30,0.22,ND,ND
2018/12/11,06:40,0.20,ND,ND
2018/12/11,06:50,0.21,ND,ND
2018/12/11,07:00,0.19,ND,ND
2018/12/11,07:10,0.18,ND,ND
2018/12/11,07:20,0.18,ND,ND
2018/12/11,07:30,0.20,ND,ND
2018/12/11,07:40,0.28,ND,ND
2018/12/11,07:50,0.27,ND,ND
2018/12/11,08:00,0.28,ND,ND
2018/12/11,08:10,0.29,ND,ND
2018/12/11,08:20,0.31,ND,ND
2018/12/11,08:30,0.34,ND,ND
2018/12/11,08:40,0.36,ND,ND
2018/12/11,08:50,0.33,ND,ND
2018/12/11,09:00,0.37,ND,ND
2018/12/11,09:10,0.40,ND,ND
2018/12/11,09:20,0.40,ND,ND
2018/12/11,09:30,0.39,ND,ND
2018/12/11,09:40,0.39,ND,ND
2018/12/11,09:50,0.37,ND,ND
2018/12/11,10:00,0.38,ND,ND
2018/12/11,10:10,0.38,ND,ND
2018/12/11,10:20,0.39,ND,ND
2018/12/11,10:30,0.40,ND,ND
2018/12/11,10:40,0.42,ND,ND
2018/12/11,10:50,0.42,ND,ND
2018/12/11,11:00,0.41,ND,ND
2018/12/11,11:10,0.40,ND,ND
2018/12/11,11:20,0.39,ND,ND
2018/12/11,11:30,0.39,ND,ND
2018/12/11,11:40,0.37,ND,ND
2018/12/11,11:50,0.37,ND,ND
2018/12/11,12:00,0.36,ND,ND
2018/12/11,12:10,0.34,ND,ND
2018/12/11,12:20,0.35,ND,ND
2018/12/11,12:30,0.33,ND,ND
2018/12/11,12:40,0.31,ND,ND
2018/12/11,12:50,0.29,ND,ND
2018/12/11,13:00,0.28,ND,ND
2018/12/11,13:10,0.31,ND,ND
2018/12/11,13:20,0.30,ND,ND
2018/12/11,13:30,0.29,ND,ND
2018/12/11,13:40,0.30,ND,ND
2018/12/11,13:50,0.32,ND,ND
2018/12/11,14:00,0.30,ND,ND
2018/12/11,14:10,0.29,ND,ND
2018/12/11,14:20,0.27,ND,ND
2018/12/11,14:30,0.28,ND,ND
2018/12/11,14:40,0.33,ND,ND
2018/12/11,14:50,0.26,ND,ND
2018/12/11,15:00,0.26,ND,ND
2018/12/11,15:10,0.27,ND,ND
2018/12/11,15:20,0.25,ND,ND
2018/12/11,15:30,0.25,ND,ND
2018/12/11,15:40,0.24,ND,ND
2018/12/11,15:50,0.24,ND,ND
2018/12/11,16:00,0.23,ND,ND
2018/12/11,16:10,0.20,ND,ND
2018/12/11,16:20,0.20,ND,ND
2018/12/11,16:30,0.20,ND,ND
2018/12/11,16:40,0.28,ND,ND
2018/12/11,16:50,0.25,ND,ND
2018/12/11,17:00,0.15,ND,ND
2018/12/11,17:10,0.24,ND,ND
2018/12/11,17:20,0.22,ND,ND
2018/12/11,17:30,0.22,ND,ND
2018/12/11,17:40,0.22,ND,ND
2018/12/11,17:50,0.23,ND,ND
2018/12/11,18:00,0.23,ND,ND
2018/12/11,18:10,0.16,ND,ND
2018/12/11,18:20,0.17,ND,ND
2018/12/11,18:30,0.16,ND,ND
2018/12/11,18:40,0.14,ND,ND
2018/12/11,18:50,0.23,ND,ND
2018/12/11,19:00,0.23,ND,ND
2018/12/11,19:10,0.23,ND,ND
2018/12/11,19:20,0.23,ND,ND
2018/12/11,19:30,0.23,ND,ND
2018/12/11,19:40,0.24,ND,ND
2018/12/11,19:50,0.24,ND,ND
2018/12/11,20:00,0.24,ND,ND
2018/12/11,20:10,0.25,ND,ND
2018/12/11,20:20,0.25,ND,ND
2018/12/11,20:30,0.19,ND,ND
2018/12/11,20:40,0.20,ND,ND
2018/12/11,20:50,0.22,ND,ND
2018/12/11,21:00,0.22,ND,ND
2018/12/11,21:10,0.23,ND,ND
2018/12/11,21:20,0.25,ND,ND
2018/12/11,21:30,0.30,ND,ND
2018/12/11,21:40,0.32,ND,ND
2018/12/11,21:50,0.43,ND,ND
2018/12/11,22:00,0.47,ND,ND
2018/12/11,22:10,0.48,ND,ND
2018/12/11,22:20,0.50,ND,ND
2018/12/11,22:30,0.50,ND,ND
2018/12/11,22:40,0.43,ND,ND
2018/12/11,22:50,0.42,ND,ND
2018/12/11,23:00,0.43,ND,ND
2018/12/11,23:10,0.45,ND,ND
2018/12/11,23:20,0.47,ND,ND
2018/12/11,23:30,0.46,ND,8.8
2018/12/11,23:40,0.47,ND,ND
2018/12/11,23:50,0.48,ND,ND
